User: anonymous   Login
Location: Young's Pond
(41.2695°N, 72.7766°W)
Time: 21:21:25
(UTC-04:00)
Language:

Spot 4 - Orbit

View from above orbital plane
View from above orbital plane
View from above satellite
View from above satellite

Ground track
Ground track

The orbit data is extracted from the following two-line orbital elements,

1 25260U 98017A   17149.54546684 +.00000159 +00000-0 +49140-4 0  9991
2 25260 098.3494 232.0022 0012415 336.1140 023.9480 14.53478437999140
Epoch (UTC): 29 May 2017 13:05:28
Eccentricity: 0.0012415
inclination: 98.3494°
perigee height: 705 km
apogee height: 723 km
right ascension of ascending node: 232.0022°
argument of perigee: 336.1140°
revolutions per day: 14.53478437
mean anomaly at epoch: 23.9480°
orbit number at epoch: 99914

The dashed part of the orbit path shows where the satellite is in the earth's shadow,  

DLR